Tracking 18844 objects as of 21-Nov-2017
HD Live streaming from Space Station
objects crossing your sky now

FENGYUN 1C DEB

Track FENGYUN 1C DEB now!
10-day predictions


NORAD ID: 37920
Int'l Code: 1999-025ENV
Perigee: 821.5 km
Apogee: 918.1 km
Inclination: 99.0 °
Period: 102.2 minutes
Semi major axis: 7240 km
RCS: 0.0026 m2 (small)
Launch date: May 10, 1999
Source: People's Republic of China (PRC)
Launch site: Taiyaun Space Center, China (TSC)

Note: This is SATELLITE DEBRIS
aabbcc
Your satellite tracking list
Your tracking list is empty




NASA's NSSDC Master Catalog

Two Line Element Set (TLE):
1 37920U 99025ENV 17323.32328998 +.00001005 +00000-0 +59396-3 0  9997
2 37920 099.0363 357.9852 0066721 276.6664 141.8266 14.09048593225348
Source of the keplerian elements: AFSPC